KUIPER-00276

Last updated on Sun Mar 15 2026 00:02:06 GMT+0000 (Coordinated Universal Time)

1 67794U 26030AG 26073.58918894 -.02108188 00000+0 -84652-1 0 9999 2 67794 51.8841 196.3901 0035458 84.4772 276.0253 15.27157721 5837
UTC large
Height (km)
Speed (km/s)
/
Latitude / Longitude
Inclination (degrees)
Orbital Period (minutes)
Azimuth
Elevation
Range (km)
Doppler Factor

Next 0 passes for location: London (51.5072 / 0.1276)

Sorry there are no passes over London.